Location: Pulvis Stellarum Observatory
(41.6962°N, 71.4263°W)
Time: 12:42:38
(UTC-04:00)

Daily predictions for brighter satellites

Satellite Brightness Start Highest point End
(mag) Time Altitude Azimuth Time Altitude Azimuth Time Altitude Azimuth
COSMOS 2455 2.9 20:25:53 10° NNW 20:31:57 78° ENE 20:37:56 10° SSE
COSMOS 2406 4.0 20:28:25 10° SSE 20:33:23 31° ESE 20:38:21 10° NE
Meteor 1-18 Rocket 4.4 20:28:02 10° S 20:33:58 88° E 20:39:55 10° N
Spot 2 Rocket 4.0 20:29:21 10° S 20:34:21 63° WSW 20:39:22 10° NNW
Helios 1B rocket 2.7 20:30:46 10° NNE 20:34:47 49° E 20:38:47 10° S
Cosmos 1939 Rocket 3.1 20:33:41 10° SSE 20:37:25 49° ENE 20:41:10 10° N
Cosmos 1455 Rocket 3.1 20:33:14 10° N 20:37:36 65° E 20:41:54 10° SSE
Meteor 1-12 Rocket 4.4 20:32:47 10° N 20:38:50 80° E 20:44:49 10° SSE
Cosmos 1680 Rocket 4.3 20:37:58 10° SSE 20:42:30 31° E 20:47:02 10° NE
SL-27 R/B 4.3 20:41:53 10° SE 20:44:04 15° E 20:46:15 10° ENE
SPOT 5 4.4 20:44:34 10° ESE 20:47:20 17° ENE 20:50:08 10° NNE
Cosmos 1812 4.3 20:44:44 10° SSW 20:48:23 39° WNW 20:52:03 10° N
Cosmos 1709 Rocket 4.4 20:46:09 10° NNW 20:52:25 70° W 20:58:32 10° S
Cosmos 1743 3.1 20:49:36 10° N 20:53:24 49° E 20:57:10 10° SSE
Iridium 4 Rocket 4.1 20:50:07 10° N 20:54:59 60° W 21:00:19 10° SSW
Cosmos 1346 3.8 20:52:33 10° SSE 20:55:00 29° E 20:57:28 10° NNE
Envisat 3.1 20:51:15 10° S 20:56:20 80° WSW 21:01:26 10° NNW
Spot 1 4.3 20:54:36 10° S 20:59:12 78° WSW 21:03:34 10° NNW
ASTRO E2 4.4 20:58:14 10° SW 21:01:03 18° S 21:03:15 12° SE
ASTEX 1 3.8 20:57:19 10° SSE 21:01:58 45° ENE 21:06:38 10° N
Aureole 3 Rocket 3.9 20:56:13 10° S 21:02:55 58° E 21:07:43 10° NNE
Tiangong 2 2.0 21:08:26 10° SSW 21:11:12 28° SSE 21:13:19 14° E
Cosmos 1437 Rocket 4.4 21:09:18 10° NNE 21:12:05 19° ENE 21:13:57 14° ESE
Aureole 1 Rocket 2.8 21:09:17 10° S 21:12:30 36° ESE 21:15:20 10° NE
Okean 1-7 Rocket 4.3 21:08:52 11° SSE 21:12:42 36° E 21:16:47 10° NNE
Meteor 2-9 Rocket 4.5 21:07:58 10° N 21:13:17 50° ENE 21:17:54 14° SSE
NOSS 2-2 (E) 3.6 21:09:43 10° SW 21:13:44 79° NW 21:18:26 10° NNE
Cosmos 1238 Rocket 4.4 21:08:26 10° SSE 21:14:53 52° E 21:21:16 10° NNE
DNEPR-1 R/B 3.8 21:12:48 10° NNW 21:16:59 56° NE 21:20:18 17° SE
Meteor 2-4 Rocket 3.8 21:14:46 10° S 21:20:15 61° E 21:25:58 10° NNE
ISS -3.1 21:20:30 10° SSW 21:23:27 31° SE 21:26:25 10° ENE
Cosmos 1666 2.6 21:20:18 10° N 21:24:03 77° E 21:26:56 16° SSE
Meteor 2-13 Rocket 4.4 21:19:57 10° N 21:26:02 89° ENE 21:32:04 10° S
Cosmos 923 Rocket 4.2 21:22:33 10° SSW 21:27:53 78° WNW 21:33:13 10° NNE
OAO 2 Rocket 3.9 21:23:31 10° WSW 21:28:03 36° S 21:31:02 19° ESE
Cosmos 2184 Rocket 4.1 21:26:10 10° N 21:32:33 82° W 21:38:50 10° S
Cosmos 2074 Rocket 4.1 21:26:30 10° N 21:32:44 79° W 21:38:59 10° S
CZ-3A R/B 2.0 21:30:01 10° SSW 21:33:08 23° SSE 21:33:08 23° SSE
Cosmos 1610 Rocket 4.5 21:30:16 10° N 21:36:35 77° E 21:41:40 16° SSE
USA 245 2.9 21:38:45 34° ESE 21:39:18 39° ENE 21:41:39 10° N
Cosmos 1606 Rocket 4.2 21:35:44 10° N 21:39:48 39° ENE 21:41:41 25° SE
Intercosmos 24 3.8 21:37:20 10° N 21:41:23 62° E 21:43:05 28° SSE
YAOGAN 11 4.0 21:40:58 23° SSE 21:43:35 74° ENE 21:47:54 10° N
YAOGAN 6 3.9 21:42:06 11° SSW 21:45:13 34° W 21:48:27 10° NNW
Cosmos 1656 Rocket 4.3 21:40:08 10° NW 21:45:23 49° WSW 21:49:50 14° S
ERS-1 Rocket 3.3 21:41:29 14° S 21:45:49 63° WSW 21:50:50 10° NNW
USA 267 4.4 21:42:27 10° ENE 21:46:46 20° ESE 21:46:46 20° ESE
MetOp-A 4.2 21:45:09 18° S 21:49:14 81° WSW 21:54:37 10° NNW
Meteor 1-23 Rocket 4.1 21:43:53 10° S 21:49:27 83° E 21:55:05 10° N
MOS 1-B Rocket 4.0 21:46:03 18° SSE 21:50:24 86° WSW 21:56:44 10° NNW
Cosmos 1726 Rocket 4.0 21:46:40 10° N 21:50:47 42° ENE 21:52:23 30° SE
Cosmos 405 Rocket 4.4 21:48:53 10° SW 21:52:16 32° WNW 21:55:44 10° N
GENESIS II 4.2 21:49:28 10° NW 21:53:25 77° WSW 21:55:01 34° SSE
Cosmos 1515 4.2 21:53:04 34° SE 21:53:55 40° E 21:57:30 10° NNE
H-2A R/B 2.2 21:52:51 27° SE 21:55:18 54° ENE 22:00:11 10° N
Cosmos 1980 Rocket 4.4 21:53:59 10° NNE 21:56:54 14° NE 21:59:48 10° ENE
Cosmos 2058 Rocket 3.8 21:53:06 10° N 21:57:13 37° ENE 21:58:34 30° ESE
Meteor 1-15 Rocket 4.1 21:52:25 10° N 21:58:03 84° E 22:01:25 25° SSE
Cosmos 2112 Rocket 4.5 21:55:35 10° SSW 22:00:44 61° WNW 22:05:54 10° NNE
Cosmos 1025 Rocket 3.2 21:58:34 16° SSW 22:01:55 72° W 22:06:12 10° N
CENTAUR R/B 3.7 21:55:32 10° NW 22:03:11 50° WSW 22:09:18 18° S
Cosmos 1441 Rocket 4.2 22:01:22 10° SSW 22:04:56 43° WNW 22:08:32 10° N
Cosmos 1624 Rocket 4.0 22:03:16 10° NNW 22:08:35 76° ENE 22:10:57 34° SSE
PSLV R/B 3.0 22:07:39 10° W 22:10:40 66° SSW 22:10:40 66° SSW
Cosmos 2154 Rocket 4.2 22:09:49 10° NNW 22:16:08 70° W 22:20:26 22° S
SL-08 RB Rocket 3.8 22:14:43 32° S 22:16:43 69° WSW 22:21:11 10° NNW
ARGOS 3.5 22:13:33 24° S 22:16:50 61° WSW 22:22:14 10° NNW
Nimbus 7 Rocket 4.4 22:11:25 10° NNE 22:17:32 89° WNW 22:22:26 17° SSW
SL-27 R/B 4.3 22:15:41 10° SW 22:19:00 32° WNW 22:22:21 10° N
SL-8 Rocket 4.2 22:14:13 10° N 22:20:24 58° E 22:23:02 34° SE
Landsat 7 3.8 22:21:40 42° SSE 22:23:16 76° ENE 22:28:02 10° N
Cosmos 2366 rocket 4.4 22:18:28 10° N 22:24:23 46° ENE 22:26:33 33° SE
SPOT 5 3.4 22:23:04 26° SSW 22:25:04 44° W 22:29:14 10° NNW
H-2A R/B 2.4 22:24:49 43° ESE 22:25:53 54° ENE 22:30:19 10° N
Cosmos 2278 3.8 22:20:56 10° NNW 22:26:38 66° ENE 22:28:45 38° SE
Cosmos 2056 Rocket 3.4 22:22:07 10° NNW 22:27:18 80° WSW 22:29:09 40° S
Cosmos 2082 Rocket 2.6 22:28:02 39° SE 22:29:10 44° ESE 22:34:31 10° NE
Cosmos 1626 Rocket 4.0 22:37:18 43° E 22:37:18 43° E 22:41:21 10° NNE
Terra 1.8 22:37:12 51° SE 22:38:19 75° ENE 22:43:05 10° N
CZ-4B R/B 4.0 22:33:59 10° NNE 22:38:45 41° E 22:39:09 40° ESE
Cosmos 839 Rocket 4.3 22:34:54 10° NNW 22:41:29 86° WSW 22:44:54 37° SSE
Cosmos 2341 Rocket 4.5 22:38:00 10° NNW 22:44:11 58° W 22:47:39 27° SSW
Cosmos 2369 3.6 22:39:28 10° NNW 22:45:15 90° W 22:46:58 48° SSE
Cosmos 967 Rocket 4.5 22:39:05 10° SW 22:45:20 81° WNW 22:51:40 10° NNE
Spot 4 4.3 22:45:18 43° E 22:46:06 47° ENE 22:50:42 10° N
SPOT 1/Viking Rocket 4.3 22:44:17 28° SSW 22:46:30 44° W 22:51:26 10° NNW
COSMOS 2487 2.6 22:47:21 71° N 22:47:21 71° N 22:50:36 10° NNE
Tiangong 2 3.3 22:44:35 10° W 22:45:36 19° W 22:45:36 19° W
Cosmos 1437 Rocket 4.3 22:45:07 10° NNW 22:48:24 27° W 22:49:25 24° WSW
Cosmos 1959 Rocket 4.5 22:44:53 10° N 22:51:17 84° E 22:53:30 44° SSE
SL-08 R/B 4.4 22:45:12 10° N 22:51:20 74° E 22:53:11 46° SSE
SL-16 R/B 4.5 22:51:40 10° NNE 22:54:45 15° NE 22:57:50 10° E
Cosmos 1697 Rocket 3.0 22:49:28 10° NNW 22:55:00 56° ENE 22:56:25 44° ESE
Cosmos 1953 4.4 22:52:44 10° NNE 22:55:13 17° ENE 22:55:13 17° ENE
IGS 5A 3.4 22:56:43 68° SW 22:57:00 71° WSW 23:01:11 10° NNW
Cosmos 1452 Rocket 3.4 22:54:19 10° NNW 22:59:36 82° ENE 23:00:34 60° SSE
ISS -2.2 22:56:50 10° W 22:59:54 35° NNW 23:02:59 10° NE
Cosmos 2218 Rocket 3.9 22:54:27 10° N 23:00:38 83° W 23:02:39 46° S
DELTA 2 DEB (DPAF) 4.3 23:01:37 58° E 23:01:51 59° ENE 23:06:16 10° N
Cosmos 1271 Rocket 3.8 23:02:34 10° N 23:05:37 36° NE 23:05:37 36° NE
Cosmos 2228 3.8 23:02:13 10° NNW 23:06:18 43° W 23:06:54 40° WSW
Cosmos 1602 Rocket 3.4 23:10:37 82° WSW 23:10:41 82° W 23:15:03 10° N
deb Chang Zheng 4 3.9 23:06:33 10° N 23:10:48 61° WNW 23:11:26 54° WSW
Cosmos 921 Rocket 4.1 23:08:18 10° NW 23:12:25 36° W 23:12:53 35° WSW
Cosmos 1833 Rocket 2.6 23:11:23 49° SSW 23:12:59 88° WNW 23:18:40 10° NNE
Cosmos 1656 3.6 23:10:01 10° NNW 23:15:27 72° WSW 23:16:17 61° SSW
Lacrosse 5 rocket 4.4 23:17:00 10° NNW 23:19:39 15° NNE 23:22:18 10° NE
Meteor 1-21 4.1 23:19:44 63° SSE 23:20:34 76° E 23:26:19 10° NNE
Cosmos 468 4.4 23:24:10 65° SSW 23:24:58 84° WNW 23:30:17 10° NNE
CZ-4 R/B 4.3 23:20:23 10° N 23:25:20 61° WNW 23:26:31 47° SW
Cosmos 1766 3.7 23:21:56 10° N 23:25:11 58° NNW 23:25:11 58° NNW
Nadezhda 3 Rocket 4.0 23:29:12 58° SSE 23:30:25 72° E 23:36:46 10° NNE
USA 267 3.1 23:24:05 10° NE 23:30:39 80° SE 23:34:02 31° SW
Meteor 1-4 Rocket 4.2 23:27:45 10° NNW 23:30:20 29° WNW 23:30:20 29° WNW
Cosmos 1758 4.2 23:30:49 10° N 23:33:51 43° NE 23:33:51 43° NE
H-2A R/B 4.0 23:33:29 15° WSW 23:35:04 17° W 23:38:18 10° NW
Cosmos 1980 Rocket 2.0 23:36:11 10° NNW 23:41:52 79° ENE 23:42:26 71° ESE
Cosmos 1470 4.4 23:39:46 10° NNE 23:42:26 28° NE 23:42:26 28° NE
SeaSat 1 2.6 23:46:39 58° ENE 23:46:58 60° ENE 23:51:50 10° NNW
SME Rocket 3.5 23:46:35 74° SE 23:47:01 81° ENE 23:51:27 10° NNW
Cosmos 1821 Rocket 4.0 23:43:05 10° N 23:49:20 69° E 23:50:18 60° SE
Cosmos 2322 Rocket 3.3 23:45:01 10° N 23:50:13 35° ENE 23:51:42 30° E
